Location: Marysville Observatory
(48.1092°N, 122.1645°W)
Time: 21:42:51
(UTC-08:00)

Amateur Radio Satellites - All Passes

Search period start: 21 December 2014 21:12
Search period end: 22 December 2014 21:12
Location: Marysville Observatory, 48.1092°N, 122.1645°W

Satellite Date Start Highest point End Downlink Frequencies (MHz)
Time Altitude Azimuth
DX 1 21 Dec 21:23:26 21:27:43 59° 258° (WSW) 21:32:01 434.975-435.025
DANDE 21 Dec 21:30:43 21:37:43 41° 270° (W) 21:45:34 436.750
BEESAT 2 21 Dec 21:31:07 21:35:21 88° 235° (SW) 21:39:31 435.950
AISAT 21 Dec 21:31:39 21:36:00 61° 72° (ENE) 21:40:23 437.250
HUMSAT D 21 Dec 21:31:51 21:35:56 60° 73° (ENE) 21:40:06 437.325/437.525
HO-68 21 Dec 21:33:10 21:38:56 26° 268° (W) 21:44:45 435.675
CUBEBUG 1 21 Dec 21:33:29 21:37:07 26° 65° (ENE) 21:40:44 437.445
SO-50 21 Dec 21:37:22 21:41:57 73° 311° (NW) 21:46:42 436.795
ANTELSAT 21 Dec 21:42:56 21:45:52 16° 89° (E) 21:48:47 437.575/2403.000
Oscar 11 21 Dec 21:44:11 21:48:02 31° 265° (W) 21:51:56 145.826/435.025
AAUSAT CUBESAT 2 21 Dec 21:51:35 21:53:56 15° 271° (W) 21:56:17 437.432
UKube-1 21 Dec 21:53:36 21:57:26 31° 264° (W) 22:01:19 .
POPSAT HIP 1 21 Dec 22:03:07 22:05:31 15° 90° (E) 22:07:55 437.405
YUBILEINY 21 Dec 22:06:09 22:11:48 19° 75° (ENE) 22:17:25 435.215
PCSat 21 Dec 22:07:58 22:13:25 74° 54° (NE) 22:18:50 145.827
CUBEBUG 2 21 Dec 22:14:16 22:17:41 24° 267° (W) 22:21:11 437.445
TIGRISAT 21 Dec 22:16:38 22:20:51 32° 95° (E) 22:25:04 435.000
CUSAT 1 21 Dec 22:16:46 22:21:56 20° 279° (W) 22:27:25 437.405
ZACube-1 21 Dec 22:18:26 22:22:05 28° 266° (W) 22:25:49 437.345
BUGSAT 1 21 Dec 22:22:19 22:25:04 17° 92° (E) 22:27:48 437.445
VELOX 1 21 Dec 22:24:24 22:28:35 42° 261° (W) 22:32:48 145.980
TISAT 1 21 Dec 22:28:07 22:31:33 25° 65° (ENE) 22:35:00 437.305
BEESAT 3 21 Dec 22:28:39 22:32:03 24° 245° (WSW) 22:35:25 437.485
DUCHIFAT 1 21 Dec 22:29:29 22:33:05 26° 95° (E) 22:36:41 145.980
ESTCUBE 1 21 Dec 22:31:32 22:36:05 83° 256° (WSW) 22:40:39 437.505/2401.250
RS-15 21 Dec 22:33:56 22:42:53 29° 257° (WSW) 22:52:09 29.354- 29.394
50 SAT 21 Dec 22:34:42 22:38:24 35° 263° (W) 22:42:11 437.505
SPROUT 21 Dec 22:35:50 22:39:27 28° 66° (ENE) 22:43:06 437.525
DELFI C3 21 Dec 22:37:17 22:38:20 11° 273° (W) 22:39:23 145.870
AIST 2 21 Dec 22:43:06 22:47:08 39° 241° (WSW) 22:51:06 435.215
QB50P2 21 Dec 22:43:51 22:47:50 37° 97° (E) 22:51:49 145.880/145.840
FUNcube-1 21 Dec 22:46:02 22:48:41 16° 271° (W) 22:51:22 145.935
UNISAT 6 21 Dec 22:46:18 22:50:59 61° 101° (E) 22:55:40 437.425
UWE-3 21 Dec 22:51:26 22:53:15 12° 273° (W) 22:55:05 435.000/436.395/437.385
POLYITAN 1 21 Dec 22:53:06 22:57:15 46° 99° (E) 23:01:23 437.675
NANOSAT C BR1 21 Dec 22:54:03 22:58:11 46° 99° (E) 23:02:17 145.865
QB50P1 21 Dec 23:08:39 23:12:55 66° 102° (ESE) 23:17:10 145.935-145.965
CUBEBUG 1 21 Dec 23:09:18 23:13:21 37° 263° (W) 23:17:24 437.445
HUMSAT D 21 Dec 23:09:50 23:12:10 15° 271° (W) 23:14:32 437.325/437.525
AISAT 21 Dec 23:10:20 23:13:03 16° 270° (W) 23:15:47 437.250
BEESAT 2 21 Dec 23:11:30 23:12:55 12° 251° (WSW) 23:14:20 435.950
M-CUBED/EXP-1 PRIME 21 Dec 23:15:02 23:17:32 14° 50° (NE) 23:20:02 437.505
ANTELSAT 21 Dec 23:18:25 23:23:07 69° 287° (WNW) 23:27:49 437.575/2403.000
SO-50 21 Dec 23:19:57 23:23:20 19° 333° (NNW) 23:26:47 436.795
POPSAT HIP 1 21 Dec 23:37:37 23:41:50 63° 287° (WNW) 23:46:04 437.405
PCSat 21 Dec 23:52:23 23:56:16 20° 253° (WSW) 00:00:07 145.827
SWISSCUBE 21 Dec 23:53:00 23:57:20 35° 66° (ENE) 00:01:41 437.505
TIGRISAT 21 Dec 23:53:21 23:57:36 34° 293° (WNW) 00:01:51 435.000
ITUPSAT 1 21 Dec 23:54:09 23:58:26 33° 65° (ENE) 00:02:44 437.325
BUGSAT 1 21 Dec 23:56:55 00:00:50 47° 289° (WNW) 00:04:45 437.445
YUBILEINY 21 Dec 23:58:29 00:07:13 82° 97° (E) 00:15:57 435.215
TISAT 1 22 Dec 00:03:21 00:07:14 36° 263° (W) 00:11:09 437.305
DUCHIFAT 1 22 Dec 00:05:09 00:09:00 34° 292° (WNW) 00:12:52 145.980
SPROUT 22 Dec 00:11:35 00:15:27 33° 264° (W) 00:19:22 437.525
ESTCUBE 1 22 Dec 00:13:19 00:13:41 10° 274° (W) 00:14:03 437.505/2401.250
BEESAT 22 Dec 00:17:18 00:21:57 54° 70° (ENE) 00:26:38 436.000
QB50P2 22 Dec 00:20:05 00:23:36 25° 295° (WNW) 00:27:07 145.880/145.840
AUBIESAT-1 22 Dec 00:20:30 00:25:03 41° 62° (ENE) 00:29:36 437.475
UNISAT 6 22 Dec 00:23:59 00:27:21 20° 299° (WNW) 00:30:44 437.425
O/OREOS (USA 219) 22 Dec 00:26:24 00:30:44 54° 111° (ESE) 00:35:06 437.305
POLYITAN 1 22 Dec 00:29:41 00:32:55 21° 297° (WNW) 00:36:10 437.675
NANOSAT C BR1 22 Dec 00:30:36 00:33:47 21° 297° (WNW) 00:36:58 145.865
QB50P1 22 Dec 00:45:46 00:48:20 16° 300° (WNW) 00:50:53 145.935-145.965
M-CUBED/EXP-1 PRIME 22 Dec 00:46:52 00:51:45 73° 68° (ENE) 00:56:39 437.505
STARS 22 Dec 00:51:21 00:54:26 19° 61° (ENE) 00:57:31 437.465
KKS-1 22 Dec 00:57:24 01:01:15 30° 65° (ENE) 01:05:07 437.445
ANTELSAT 22 Dec 00:57:46 00:59:04 11° 306° (NW) 01:00:21 437.575/2403.000
SO-50 22 Dec 01:04:24 01:05:46 11° 357° (N) 01:07:09 436.795
Oscar 19 22 Dec 01:29:09 01:34:14 50° 100° (E) 01:39:17 437.125/150
SWISSCUBE 22 Dec 01:30:56 01:35:13 32° 264° (W) 01:39:31 437.505
ITUPSAT 1 22 Dec 01:31:57 01:36:18 34° 264° (W) 01:40:41 437.325
ITAMSAT 1 22 Dec 01:48:38 01:53:09 30° 95° (E) 01:57:39 435.822/435.867
Gurwin Techsat 1B 22 Dec 01:53:03 01:57:08 22° 91° (E) 02:01:11 435.225
AUBIESAT-1 22 Dec 01:55:42 02:00:01 31° 260° (W) 02:04:23 437.475
BEESAT 22 Dec 01:56:32 02:00:07 21° 268° (W) 02:03:44 436.000
YUBILEINY 22 Dec 01:58:04 02:05:08 27° 300° (WNW) 02:12:13 435.215
O/OREOS (USA 219) 22 Dec 02:06:58 02:10:28 22° 311° (NW) 02:13:59 437.305
HORYU 2 22 Dec 02:17:50 02:19:54 13° 88° (E) 02:21:57 437.375
M-CUBED/EXP-1 PRIME 22 Dec 02:23:59 02:27:11 17° 265° (W) 02:30:25 437.505
STARS 22 Dec 02:26:14 02:30:32 55° 259° (W) 02:34:52 437.465
KKS-1 22 Dec 02:33:50 02:37:50 33° 264° (W) 02:41:52 437.445
VERMONT LUNAR 22 Dec 02:40:12 02:41:53 13° 158° (SSE) 02:43:35 437.305
SO-50 22 Dec 02:45:19 02:48:20 16° 22° (NNE) 02:51:22 436.795
PHONESAT 2.4 22 Dec 03:01:47 03:03:30 13° 157° (SSE) 03:05:14 2401.200-2431.200
AIST 1 22 Dec 03:02:18 03:06:31 54° 77° (ENE) 03:10:41
Oscar 19 22 Dec 03:09:01 03:13:18 27° 298° (WNW) 03:17:35 437.125/150
ITAMSAT 1 22 Dec 03:27:55 03:32:47 42° 293° (WNW) 03:37:37 435.822/435.867
Gurwin Techsat 1B 22 Dec 03:32:16 03:37:29 59° 290° (WNW) 03:42:41 435.225
AO-7 22 Dec 03:37:32 03:45:02 35° 95° (E) 03:52:27 29.400- 29.500
HORYU 2 22 Dec 03:52:36 03:57:09 79° 286° (WNW) 04:01:39 437.375
MOZHAYETS 4 22 Dec 03:53:55 03:58:31 63° 73° (ENE) 04:03:08
GONETS M04 22 Dec 04:00:17 04:06:45 24° 77° (ENE) 04:13:12
PRISM 22 Dec 04:04:06 04:06:34 15° 59° (ENE) 04:09:02 437.425
JAS-2 22 Dec 04:07:53 04:11:42 18° 87° (E) 04:15:20 435.910
VERMONT LUNAR 22 Dec 04:16:38 04:19:29 23° 175° (S) 04:22:20 437.305
SO-50 22 Dec 04:25:16 04:30:01 49° 44° (NE) 04:34:47 436.795
STRAND 1 22 Dec 04:36:27 04:39:50 18° 57° (ENE) 04:43:14 437.568
PHONESAT 2.4 22 Dec 04:38:31 04:41:28 23° 174° (S) 04:44:25 2401.200-2431.200
AIST 1 22 Dec 04:41:10 04:43:43 16° 276° (W) 04:46:16
Cubesat XI-IV 22 Dec 04:59:17 05:00:30 11° 85° (E) 05:01:42 437.490
Gurwin Techsat 1B 22 Dec 05:14:57 05:16:24 11° 310° (NW) 05:17:50 435.225
CUBESAT XI-V 22 Dec 05:22:03 05:26:25 41° 69° (ENE) 05:30:47 437.345
CUTE-I 22 Dec 05:29:51 05:33:47 21° 91° (E) 05:37:42 437.470
AO-7 22 Dec 05:30:03 05:38:18 64° 296° (WNW) 05:46:30 29.400- 29.500
HORYU 2 22 Dec 05:31:24 05:33:03 12° 305° (NW) 05:34:42 437.375
MOZHAYETS 4 22 Dec 05:33:10 05:36:10 17° 271° (W) 05:39:12
PRISM 22 Dec 05:37:24 05:41:36 68° 257° (WSW) 05:45:50 437.425
JAS-2 22 Dec 05:51:51 05:57:34 68° 289° (WNW) 06:02:46 435.910
GONETS M04 22 Dec 05:53:34 06:02:26 87° 279° (W) 06:11:20
VERMONT LUNAR 22 Dec 05:54:33 05:57:12 20° 192° (SSW) 05:59:51 437.305
SO-50 22 Dec 06:06:09 06:10:25 31° 244° (WSW) 06:14:41 436.795
STRAND 1 22 Dec 06:13:21 06:18:27 77° 256° (WSW) 06:23:35 437.568
PHONESAT 2.4 22 Dec 06:16:45 06:19:33 21° 191° (S) 06:22:20 2401.200-2431.200
Cubesat XI-IV 22 Dec 06:36:11 06:41:32 73° 103° (ESE) 06:46:50 437.490
CUBESAT XI-V 22 Dec 07:00:08 07:04:00 25° 267° (W) 07:07:53 437.345
CUTE-I 22 Dec 07:09:02 07:14:18 63° 289° (WNW) 07:19:33 437.470
AO-7 22 Dec 07:24:05 07:29:35 20° 319° (NW) 07:35:05 29.400- 29.500
JAS-2 22 Dec 07:39:04 07:41:28 13° 312° (NW) 07:43:47 435.910
GONETS M04 22 Dec 07:53:59 08:00:41 23° 303° (WNW) 08:07:26
STRAND 1 22 Dec 07:57:15 07:58:30 11° 275° (W) 07:59:46 437.568
BRITE-PL 22 Dec 08:08:15 08:11:58 22° 93° (E) 08:15:53 437.365/2234.400
CUSAT 1 22 Dec 08:08:22 08:10:14 13° 76° (ENE) 08:12:18 437.405
YUBILEINY 22 Dec 08:09:45 08:13:13 13° 45° (NE) 08:16:40 435.215
CANX-2 22 Dec 08:14:37 08:17:59 22° 92° (E) 08:21:19 2200.000
UNISAT 6 22 Dec 08:15:44 08:17:23 12° 55° (NE) 08:19:03 437.425
Cubesat XI-IV 22 Dec 08:17:19 08:21:05 20° 303° (WNW) 08:24:51 437.490
GOMX 1 22 Dec 08:25:22 08:29:15 24° 93° (E) 08:33:19 467.674
COMPASS 1 22 Dec 08:31:05 08:34:24 21° 92° (E) 08:37:40 437.405
QB50P1 22 Dec 08:33:13 08:34:06 11° 56° (NE) 08:34:59 145.935-145.965
SEEDS 22 Dec 08:38:54 08:42:42 30° 95° (E) 08:46:28 437.485
DOVE 4 22 Dec 08:42:01 08:46:02 26° 94° (E) 08:50:13 437.250
CUTE 1.7 + AOD 2 22 Dec 08:44:42 08:48:46 39° 97° (E) 08:52:49 437.475
ANTELSAT 22 Dec 08:45:46 08:49:08 22° 62° (ENE) 08:52:35 437.575/2403.000
CUTE-I 22 Dec 08:51:30 08:53:22 12° 309° (NW) 08:55:15 437.470
O/OREOS (USA 219) 22 Dec 08:53:45 08:57:37 27° 52° (NE) 09:01:29 437.305
CINEMA 3 22 Dec 08:53:49 08:57:27 21° 92° (E) 09:01:08 145.822/145.860
HO-68 22 Dec 08:54:48 09:01:49 54° 101° (E) 09:08:46 435.675
POPSAT HIP 1 22 Dec 08:59:49 09:02:45 19° 62° (ENE) 09:05:42 437.405
UWE-3 22 Dec 09:00:02 09:02:08 13° 87° (E) 09:04:14 435.000/436.395/437.385
DANDE 22 Dec 09:06:48 09:10:21 35° 89° (E) 09:15:02 436.750
DX 1 22 Dec 09:09:11 09:12:12 18° 92° (E) 09:15:13 434.975-435.025
MaSat-1 22 Dec 09:16:14 09:18:11 26° 305° (NW) 09:20:07 437.345
BUGSAT 1 22 Dec 09:16:19 09:19:24 21° 64° (ENE) 09:22:27 437.445
TIGRISAT 22 Dec 09:19:06 09:23:13 41° 68° (ENE) 09:27:28 435.000
DUCHIFAT 1 22 Dec 09:25:51 09:29:34 32° 67° (ENE) 09:33:18 145.980
Oscar 11 22 Dec 09:27:36 09:31:41 37° 97° (E) 09:35:43 145.826/435.025
AAUSAT CUBESAT 2 22 Dec 09:29:16 09:33:32 74° 102° (ESE) 09:37:45 437.432
UKube-1 22 Dec 09:37:30 09:41:26 33° 97° (E) 09:45:20 .
QB50P2 22 Dec 09:40:29 09:44:30 45° 70° (ENE) 09:48:33 145.880/145.840
BRITE-PL 22 Dec 09:46:11 09:50:42 50° 289° (WNW) 09:55:34 437.365/2234.400
CUSAT 1 22 Dec 09:47:59 09:52:01 75° 284° (WNW) 09:57:34 437.405
UNISAT 6 22 Dec 09:48:59 09:53:23 81° 75° (ENE) 09:57:57 437.425
POLYITAN 1 22 Dec 09:49:55 09:54:02 56° 72° (ENE) 09:58:11 437.675
CANX-2 22 Dec 09:50:00 09:54:07 43° 290° (WNW) 09:58:11 2200.000
NANOSAT C BR1 22 Dec 09:50:23 09:54:30 56° 72° (ENE) 09:58:38 145.865
CUBEBUG 2 22 Dec 10:00:33 10:05:07 55° 100° (E) 10:09:46 437.445
ZACube-1 22 Dec 10:02:50 10:07:10 42° 98° (E) 10:11:32 437.345
GOMX 1 22 Dec 10:03:00 10:07:33 48° 289° (WNW) 10:12:24 467.674
YUBILEINY 22 Dec 10:04:17 10:12:42 50° 72° (ENE) 10:21:04 435.215
QB50P1 22 Dec 10:05:03 10:09:15 80° 75° (ENE) 10:13:30 145.935-145.965
COMPASS 1 22 Dec 10:06:16 10:10:18 42° 290° (WNW) 10:14:18 437.405
DELFI C3 22 Dec 10:10:43 10:14:53 87° 103° (ESE) 10:18:59 145.870
50 SAT 22 Dec 10:11:28 10:14:53 24° 94° (E) 10:18:18 437.505
VELOX 1 22 Dec 10:11:44 10:15:33 28° 95° (E) 10:19:21 145.980
SEEDS 22 Dec 10:14:44 10:18:31 31° 293° (WNW) 10:22:16 437.485
DOVE 4 22 Dec 10:19:25 10:23:56 44° 290° (WNW) 10:28:41 437.250
CUTE 1.7 + AOD 2 22 Dec 10:21:01 10:24:31 25° 295° (WNW) 10:28:00 437.475
ANTELSAT 22 Dec 10:21:21 10:25:37 49° 261° (W) 10:30:02 437.575/2403.000
ESTCUBE 1 22 Dec 10:22:05 10:24:54 16° 90° (E) 10:27:42 437.505/2401.250
FUNcube-1 22 Dec 10:28:51 10:33:24 75° 103° (ESE) 10:37:59 145.935
CINEMA 3 22 Dec 10:30:18 10:34:55 54° 289° (WNW) 10:39:41 145.822/145.860
O/OREOS (USA 219) 22 Dec 10:32:55 10:37:10 42° 252° (WSW) 10:41:26 437.305
POPSAT HIP 1 22 Dec 10:34:12 10:38:18 52° 260° (W) 10:42:26 437.405
UWE-3 22 Dec 10:34:38 10:39:14 83° 285° (WNW) 10:43:55 435.000/436.395/437.385
HO-68 22 Dec 10:42:53 10:49:19 37° 301° (WNW) 10:55:42 435.675
DX 1 22 Dec 10:44:31 10:48:45 52° 290° (WNW) 10:52:58 434.975-435.025
HUMSAT D 22 Dec 10:48:28 10:52:49 73° 103° (ESE) 10:57:10 437.325/437.525
RS-15 22 Dec 10:49:18 10:59:02 40° 109° (ESE) 11:08:47 29.354- 29.394
DANDE 22 Dec 10:50:34 10:54:02 25° 299° (WNW) 10:58:27 436.750
BUGSAT 1 22 Dec 10:50:48 10:54:40 41° 261° (W) 10:58:32 437.445
CUBEBUG 1 22 Dec 10:54:43 10:58:34 30° 96° (E) 11:02:24 437.445
AISAT 22 Dec 10:55:42 11:00:09 77° 104° (ESE) 11:04:36 437.250
TIGRISAT 22 Dec 10:56:37 11:00:09 24° 267° (W) 11:03:47 435.000
DUCHIFAT 1 22 Dec 11:01:49 11:05:26 28° 265° (W) 11:09:05 145.980
Oscar 11 22 Dec 11:04:04 11:07:42 26° 295° (WNW) 11:11:20 145.826/435.025
AAUSAT CUBESAT 2 22 Dec 11:06:23 11:08:39 14° 301° (WNW) 11:10:54 437.432
Oscar 19 22 Dec 11:12:42 11:16:02 18° 57° (ENE) 11:19:24 437.125/150
UKube-1 22 Dec 11:13:47 11:17:31 29° 295° (WNW) 11:21:15 .
QB50P2 22 Dec 11:17:33 11:20:39 20° 268° (W) 11:23:47 145.880/145.840
POLYITAN 1 22 Dec 11:27:43 11:30:21 16° 270° (W) 11:32:59 437.675
NANOSAT C BR1 22 Dec 11:28:07 11:30:44 16° 270° (W) 11:33:22 145.865
UNISAT 6 22 Dec 11:29:03 11:30:50 12° 273° (W) 11:32:38 437.425
ITAMSAT 1 22 Dec 11:34:50 11:36:36 12° 51° (NE) 11:38:22 435.822/435.867
CUSAT 1 22 Dec 11:34:56 11:36:42 12° 312° (NW) 11:38:38 437.405
CUBEBUG 2 22 Dec 11:38:01 11:41:29 21° 298° (WNW) 11:45:00 437.445
ZACube-1 22 Dec 11:39:38 11:43:20 25° 296° (WNW) 11:47:04 437.345
QB50P1 22 Dec 11:44:22 11:45:43 11° 273° (W) 11:47:05 145.935-145.965
TISAT 1 22 Dec 11:44:48 11:48:24 27° 95° (E) 11:52:00 437.305
50 SAT 22 Dec 11:46:23 11:50:11 35° 292° (WNW) 11:53:59 437.505
DELFI C3 22 Dec 11:47:59 11:49:30 12° 302° (WNW) 11:51:00 145.870
VELOX 1 22 Dec 11:48:10 11:52:11 35° 293° (WNW) 11:56:12 145.980
SPROUT 22 Dec 11:54:35 11:58:28 32° 96° (E) 12:02:20 437.525
ESTCUBE 1 22 Dec 11:57:45 12:02:12 62° 288° (WNW) 12:06:38 437.505/2401.250
YUBILEINY 22 Dec 12:01:24 12:09:23 43° 274° (W) 12:17:23 435.215
FUNcube-1 22 Dec 12:06:32 12:09:13 16° 301° (WNW) 12:11:55 145.935
UWE-3 22 Dec 12:13:08 12:15:05 13° 303° (WNW) 12:17:02 435.000/436.395/437.385
BEESAT 22 Dec 12:17:19 12:17:51 10° 85° (E) 12:18:23 436.000
ISS 22 Dec 12:20:49 12:22:16 12° 135° (SE) 12:23:44 145.825
HUMSAT D 22 Dec 12:25:38 12:28:05 15° 300° (WNW) 12:30:33 437.325/437.525
BEESAT 3 22 Dec 12:26:16 12:29:42 26° 116° (ESE) 12:33:10 437.485
CUBEBUG 1 22 Dec 12:31:06 12:34:55 31° 294° (WNW) 12:38:44 437.445
AISAT 22 Dec 12:33:45 12:36:13 15° 302° (WNW) 12:38:42 437.250
AIST 2 22 Dec 12:45:37 12:48:35 19° 112° (ESE) 12:51:36 435.215
Oscar 19 22 Dec 12:49:36 12:54:45 81° 256° (WSW) 12:59:58 437.125/150
AO-7 22 Dec 12:51:35 12:57:01 20° 41° (NE) 13:02:27 29.400- 29.500
PCSat 22 Dec 12:53:44 12:58:26 31° 111° (ESE) 13:03:10 145.827
RS-15 22 Dec 12:59:46 13:10:40 72° 314° (NW) 13:21:45 29.354- 29.394
BEESAT 2 22 Dec 13:07:19 13:11:22 57° 123° (ESE) 13:15:29 435.950
ITAMSAT 1 22 Dec 13:10:01 13:15:07 64° 71° (ENE) 13:20:15 435.822/435.867
Gurwin Techsat 1B 22 Dec 13:17:23 13:22:27 48° 68° (ENE) 13:27:33 435.225
HORYU 2 22 Dec 13:19:30 13:22:44 20° 61° (ENE) 13:26:00 437.375
TISAT 1 22 Dec 13:20:28 13:24:17 33° 293° (WNW) 13:28:05 437.305
SWISSCUBE 22 Dec 13:27:11 13:31:50 50° 100° (E) 13:36:27 437.505
ITUPSAT 1 22 Dec 13:28:33 13:33:11 47° 99° (E) 13:37:46 437.325
SPROUT 22 Dec 13:30:47 13:34:30 29° 294° (WNW) 13:38:13 437.525
AUBIESAT-1 22 Dec 13:35:55 13:38:36 16° 94° (E) 13:41:07 437.475
BEESAT 22 Dec 13:51:41 13:56:30 79° 104° (ESE) 14:01:15 436.000
ISS 22 Dec 13:55:03 13:58:20 64° 152° (SSE) 14:01:36 145.825
M-CUBED/EXP-1 PRIME 22 Dec 14:02:18 14:06:15 32° 100° (E) 14:09:52 437.505
BEESAT 3 22 Dec 14:03:44 14:07:42 43° 315° (NW) 14:11:42 437.485
GONETS M04 22 Dec 14:04:22 14:09:04 15° 48° (NE) 14:13:43
STARS 22 Dec 14:13:16 14:16:41 21° 93° (E) 14:20:05 437.465
KKS-1 22 Dec 14:21:07 14:25:16 36° 97° (E) 14:29:23 437.445
AIST 2 22 Dec 14:22:34 14:26:48 61° 311° (NW) 14:31:05 435.215
JAS-2 22 Dec 14:23:45 14:28:33 20° 54° (NE) 14:33:03 435.910
Oscar 19 22 Dec 14:33:06 14:34:56 12° 275° (W) 14:36:46 437.125/150
PCSat 22 Dec 14:36:23 14:41:38 50° 311° (NW) 14:46:57 145.827
AO-7 22 Dec 14:40:06 14:48:16 63° 64° (ENE) 14:56:30 29.400- 29.500
BEESAT 2 22 Dec 14:46:27 14:49:55 25° 323° (NW) 14:53:26 435.950
ITAMSAT 1 22 Dec 14:51:23 14:55:04 20° 269° (W) 14:58:47 435.822/435.867
HORYU 2 22 Dec 14:54:39 14:59:02 55° 259° (W) 15:03:29 437.375
Gurwin Techsat 1B 22 Dec 14:58:11 15:02:39 27° 267° (W) 15:07:08 435.225
SWISSCUBE 22 Dec 15:05:40 15:09:24 23° 298° (WNW) 15:13:07 437.505
ITUPSAT 1 22 Dec 15:06:58 15:10:49 25° 298° (WNW) 15:14:38 437.325
AUBIESAT-1 22 Dec 15:09:42 15:14:01 58° 294° (WNW) 15:17:57 437.475
RS-15 22 Dec 15:15:24 15:25:15 36° 345° (NNW) 15:35:22 29.354- 29.394
BEESAT 22 Dec 15:30:51 15:33:45 16° 303° (WNW) 15:36:37 436.000
ISS 22 Dec 15:31:48 15:35:01 47° 352° (N) 15:38:13 145.825
AIST 1 22 Dec 15:36:04 15:39:45 27° 89° (E) 15:43:26
M-CUBED/EXP-1 PRIME 22 Dec 15:37:20 15:41:12 30° 301° (WNW) 15:44:48 437.505
BEESAT 3 22 Dec 15:45:06 15:46:56 13° 337° (NNW) 15:48:47 437.485
MOZHAYETS 4 22 Dec 15:47:48 15:49:30 12° 86° (E) 15:51:12
STARS 22 Dec 15:49:08 15:53:23 46° 291° (WNW) 15:57:38 437.465
KKS-1 22 Dec 15:57:59 16:01:48 28° 295° (WNW) 16:05:37 437.445
GONETS M04 22 Dec 15:59:34 16:08:14 58° 74° (ENE) 16:16:47
AIST 2 22 Dec 16:03:39 16:06:17 16° 333° (NNW) 16:08:56 435.215
JAS-2 22 Dec 16:05:17 16:12:47 79° 73° (ENE) 16:19:32 435.910
PCSat 22 Dec 16:23:06 16:26:23 16° 335° (NNW) 16:29:40 145.827
Cubesat XI-IV 22 Dec 16:23:11 16:27:37 28° 62° (ENE) 16:32:04 437.490
AO-7 22 Dec 16:34:06 16:41:31 35° 264° (W) 16:49:02 29.400- 29.500
CUTE-I 22 Dec 16:54:58 17:00:03 47° 68° (ENE) 17:05:08 437.470
ISS 22 Dec 17:08:42 17:11:56 51° 12° (NNE) 17:15:10 145.825
MaSat-1 22 Dec 17:09:06 17:11:24 51° 58° (ENE) 17:13:49 437.345
AIST 1 22 Dec 17:13:24 17:17:19 32° 288° (WNW) 17:21:15
PRISM 22 Dec 17:18:38 17:20:39 13° 89° (E) 17:22:39 437.425
MOZHAYETS 4 22 Dec 17:22:44 17:27:24 87° 285° (WNW) 17:32:00
RS-15 22 Dec 17:31:15 17:41:21 38° 19° (NNE) 17:51:46 29.354- 29.394
HO-68 22 Dec 17:43:35 17:47:27 16° 44° (NE) 17:51:19 435.675
JAS-2 22 Dec 17:52:36 17:58:21 24° 270° (W) 18:03:45 435.910
GONETS M04 22 Dec 17:56:57 18:04:40 37° 276° (W) 18:12:20
DANDE 22 Dec 18:00:08 18:04:29 16° 54° (NE) 18:09:10 436.750
Cubesat XI-IV 22 Dec 18:02:19 18:07:28 50° 260° (W) 18:12:39 437.490
STRAND 1 22 Dec 18:20:42 18:25:02 27° 94° (E) 18:29:20 437.568
CUTE-I 22 Dec 18:35:50 18:40:20 28° 266° (W) 18:44:51 437.470
CUSAT 1 22 Dec 18:39:02 18:45:32 29° 63° (ENE) 18:52:39 437.405
ISS 22 Dec 18:45:21 18:48:33 49° 211° (SSW) 18:51:43 145.825
AAUSAT CUBESAT 2 22 Dec 18:52:08 18:53:07 11° 56° (ENE) 18:54:05 437.432
CUBESAT XI-V 22 Dec 18:52:19 18:56:55 63° 101° (E) 19:01:28 437.345
PRISM 22 Dec 18:52:31 18:56:39 67° 287° (WNW) 19:00:45 437.425
MOZHAYETS 4 22 Dec 19:01:46 19:03:54 13° 303° (WNW) 19:06:03
BEESAT 3 22 Dec 19:04:48 19:07:05 14° 26° (NNE) 19:09:20 437.485
CANX-2 22 Dec 19:11:21 19:14:52 25° 65° (ENE) 19:18:26 2200.000
BRITE-PL 22 Dec 19:23:28 19:27:09 32° 67° (ENE) 19:30:53 437.365/2234.400
AIST 2 22 Dec 19:25:24 19:27:21 13° 22° (NNE) 19:29:18 435.215
COMPASS 1 22 Dec 19:26:22 19:29:48 25° 65° (ENE) 19:33:16 437.405
HO-68 22 Dec 19:26:46 19:33:46 58° 65° (ENE) 19:40:46 435.675
DELFI C3 22 Dec 19:30:43 19:32:02 11° 57° (ENE) 19:33:22 145.870
SEEDS 22 Dec 19:34:45 19:38:36 34° 68° (ENE) 19:42:28 437.485
GOMX 1 22 Dec 19:37:51 19:41:33 32° 67° (ENE) 19:45:21 467.674
CUTE 1.7 + AOD 2 22 Dec 19:41:09 19:45:13 44° 70° (ENE) 19:49:20 437.475
DANDE 22 Dec 19:41:54 19:49:24 58° 73° (ENE) 19:57:55 436.750
RS-15 22 Dec 19:44:30 19:55:45 77° 48° (NE) 20:07:29 29.354- 29.394
BEESAT 2 22 Dec 19:46:28 19:49:45 21° 34° (NE) 19:53:00 435.950
DOVE 4 22 Dec 19:51:59 19:55:44 34° 67° (ENE) 19:59:36 437.250
PCSat 22 Dec 19:54:35 19:58:07 17° 28° (NNE) 20:01:38 145.827
FUNcube-1 22 Dec 19:55:21 19:57:02 12° 57° (ENE) 19:58:43 145.935
STRAND 1 22 Dec 19:59:33 20:04:24 45° 293° (WNW) 20:09:13 437.568
CINEMA 3 22 Dec 19:59:48 20:03:18 26° 64° (ENE) 20:06:54 145.822/145.860
UWE-3 22 Dec 20:01:14 20:03:50 16° 59° (ENE) 20:06:29 435.000/436.395/437.385
DX 1 22 Dec 20:08:15 20:11:51 26° 64° (ENE) 20:15:28 434.975-435.025
HUMSAT D 22 Dec 20:12:18 20:13:16 11° 56° (NE) 20:14:14 437.325/437.525
CUSAT 1 22 Dec 20:21:33 20:29:18 80° 261° (W) 20:37:50 437.405
AISAT 22 Dec 20:23:13 20:25:42 15° 58° (ENE) 20:28:11 437.250
SO-50 22 Dec 20:23:44 20:27:58 39° 119° (ESE) 20:32:20 436.795
AAUSAT CUBESAT 2 22 Dec 20:23:49 20:28:02 80° 75° (ENE) 20:32:18 437.432
Oscar 11 22 Dec 20:25:48 20:29:57 45° 70° (ENE) 20:34:07 145.826/435.025
CUBESAT XI-V 22 Dec 20:30:47 20:33:54 18° 300° (WNW) 20:37:01 437.345
UKube-1 22 Dec 20:35:58 20:40:06 45° 69° (ENE) 20:44:15 .
BEESAT 3 22 Dec 20:42:03 20:46:10 54° 47° (NE) 20:50:15 437.485
CANX-2 22 Dec 20:46:41 20:50:39 37° 263° (W) 20:54:41 2200.000
COMPASS 1 22 Dec 21:01:25 21:05:22 38° 263° (W) 21:09:21 437.405
BRITE-PL 22 Dec 21:02:17 21:05:46 26° 266° (W) 21:09:17 437.365/2234.400
DELFI C3 22 Dec 21:02:30 21:06:38 89° 77° (ENE) 21:10:48 145.870
ZACube-1 22 Dec 21:02:39 21:06:43 50° 71° (ENE) 21:10:55 437.345
CUBEBUG 2 22 Dec 21:02:43 21:06:54 68° 73° (ENE) 21:11:14 437.445
AIST 2 22 Dec 21:02:59 21:07:06 41° 44° (NE) 21:11:10 435.215
50 SAT 22 Dec 21:03:25 21:06:45 25° 65° (ENE) 21:10:07 437.505
